Regional Weather Roundup
Issued by NWS

Home | Current Version | Previous Version | Text Only | Print | Product List | Glossary On
Versions: 1 2 3 4 5 6 7 8 9 10 11 12 13 14 15 16 17 18 19 20 21 22 23 24 25 26 27 28 29 30 31 32 33 34 35 36 37 38 39 40 41 42 43 44 45 46 47 48 49 50
456
ASUS43 KFSD 250110
RWRSD

WEATHER ROUNDUP FOR SOUTH DAKOTA
NATIONAL WEATHER SERVICE SIOUX FALLS SD
800 PM CDT SAT SEP 24 2016

NOTE: "FAIR" INDICATES FEW OR NO CLOUDS BELOW 12,000 FEET WITH NO
SIGNIFICANT WEATHER AND/OR OBSTRUCTIONS TO VISIBILITY.


SDZ001>005-009-010-012>017-250200-
NORTHWEST AND NORTH CENTRAL SOUTH DAKOTA

CITY           SKY/WX    TMP DP  RH WIND       PRES   REMARKS
BUFFALO          N/A     51  49  92 W35G44    29.74S
FAITH            N/A     52  44  74 W28G38    29.86R
MOBRIDGE       PTCLDY    66  48  52 W21G26    29.77R
$$

SDZ012>016-024>037-041>051-057-063-072>074-250200-
SOUTHWEST AND SOUTH CENTRAL SOUTH DAKOTA

CITY           SKY/WX    TMP DP  RH WIND       PRES   REMARKS
RAPID CTY ARPT PTCLDY    54  37  52 SW6       29.97R
PIERRE         CLEAR     68  41  37 W16       29.84R
CUSTER         LGT RAIN  40  36  86 W18G32    30.02R FOG
ELLSWORTH AFB  MOCLDY    54  38  54 NW23G29   29.96R
PHILIP         CLEAR     58  41  53 NW20G30   29.92R
PINE RIDGE     CLEAR     54  41  61 W20G29    30.05R
WINNER         FAIR      67  41  38 W7        29.90R
$$

SDZ004>011-016>023-039-040-250200-
NORTHEAST SOUTH DAKOTA

CITY           SKY/WX    TMP DP  RH WIND       PRES   REMARKS
ABERDEEN       CLEAR     68  48  48 S8        29.81R
WATERTOWN      PTCLDY    69  67  93 S10       29.86R
BROOKINGS      CLOUDY    67  65  93 S9        29.89R
SISSETON         N/A     70  68  93 S10       29.82R
$$

SDZ017-020-022-023-036>040-048>070-250200-
SOUTHEAST SOUTH DAKOTA

CITY           SKY/WX    TMP DP  RH WIND       PRES   REMARKS
SIOUX FALLS    CLOUDY    72  68  87 S12       29.90R
HURON          PTCLDY    70  52  52 S8        29.85R
CHAMBERLAIN    CLEAR     68  46  45 SW5       29.88R
MITCHELL       PTCLDY    70  56  61 CALM      29.87R
YANKTON        CLOUDY    72  70  94 E6        29.87R
$$

ABBREVIATIONS USED IN REMARKS
   TC - TEMPERATURE IN CELSIUS
  WCI - WIND CHILL INDEX
   HX - HEAT INDEX
  VSB - VISIBILITY





USA.gov is the U.S. government's official web portal to all federal, state and local government web resources and services.